VOI1780 MMGL-KMCO

Flight info

Callsign VOI1780
Flight time N/A
Altitude 35000
Route FEISE1B FEISE J25 CVM DCT EBDUB DCT CLONN DCT LLACK DCT HRVCJ DCT TRESR DCT DTSRH DCT CHRGE PRICY5
Aircraft A320/M-SDE3FGHIRWY/LB1

Departure

Time N/A
Airport Guadalajara International Airport (MMGL)

Arrival

Time 2026-05-07 21:07
Airport Orlando International Airport (KMCO)
Time Latitude Longitude Altitude Speed Heading
2026-05-07 20:21 27.67334 -85.95305 35040 ft 498 kts 81°
2026-05-07 20:22 27.67836 -85.91439 35040 ft 498 kts 81°
2026-05-07 20:22 27.68781 -85.83704 35043 ft 498 kts 82°
2026-05-07 20:23 27.69740 -85.75964 35048 ft 498 kts 81°
2026-05-07 20:23 27.70725 -85.68222 35042 ft 498 kts 81°
2026-05-07 20:24 27.71701 -85.60478 35040 ft 498 kts 81°
2026-05-07 20:24 27.72682 -85.52740 35043 ft 498 kts 81°
2026-05-07 20:25 27.73664 -85.44998 35047 ft 498 kts 81°
2026-05-07 20:25 27.74630 -85.37260 35050 ft 498 kts 81°
2026-05-07 20:26 27.75580 -85.29561 35046 ft 498 kts 81°
2026-05-07 20:26 27.76536 -85.21774 35047 ft 498 kts 81°
2026-05-07 20:27 27.77492 -85.14082 35047 ft 498 kts 81°
2026-05-07 20:27 27.78439 -85.06344 35046 ft 497 kts 82°
2026-05-07 20:28 27.79378 -84.98604 35047 ft 497 kts 81°
2026-05-07 20:28 27.80315 -84.90860 35050 ft 497 kts 81°
2026-05-07 20:29 27.81243 -84.83117 35054 ft 497 kts 82°
2026-05-07 20:29 27.81824 -84.75335 35049 ft 497 kts 87°
2026-05-07 20:30 27.82078 -84.67528 35048 ft 497 kts 88°
2026-05-07 20:30 27.82340 -84.59725 35053 ft 497 kts 87°
2026-05-07 20:31 27.82706 -84.51932 35057 ft 497 kts 86°
2026-05-07 20:31 27.83092 -84.44149 35056 ft 496 kts 86°
2026-05-07 20:32 27.83460 -84.36406 35055 ft 496 kts 86°
2026-05-07 20:32 27.83808 -84.28631 35051 ft 496 kts 86°
2026-05-07 20:33 27.84151 -84.20876 34720 ft 489 kts 86°
2026-05-07 20:33 27.84320 -84.17054 34488 ft 486 kts 86°
2026-05-07 20:33 27.84491 -84.13239 34256 ft 484 kts 86°
2026-05-07 20:33 27.84657 -84.09437 34030 ft 483 kts 86°
2026-05-07 20:34 27.84820 -84.05665 33777 ft 481 kts 86°
2026-05-07 20:34 27.84985 -84.01895 33526 ft 479 kts 86°
2026-05-07 20:34 27.85148 -83.98140 33264 ft 478 kts 86°
2026-05-07 20:34 27.85308 -83.94401 33010 ft 476 kts 87°
2026-05-07 20:35 27.85468 -83.90668 32762 ft 474 kts 86°
2026-05-07 20:35 27.85625 -83.86952 32513 ft 473 kts 86°
2026-05-07 20:35 27.85781 -83.83242 32267 ft 472 kts 86°
2026-05-07 20:35 27.85935 -83.79541 32016 ft 470 kts 87°
2026-05-07 20:36 27.86087 -83.75860 31778 ft 469 kts 87°
2026-05-07 20:36 27.86239 -83.72193 31521 ft 464 kts 87°
2026-05-07 20:36 27.86388 -83.68560 31069 ft 463 kts 87°
2026-05-07 20:36 27.86532 -83.64978 30633 ft 461 kts 87°
2026-05-07 20:37 27.86679 -83.61359 30196 ft 460 kts 87°
2026-05-07 20:37 27.86824 -83.57754 29715 ft 458 kts 87°
2026-05-07 20:37 27.86966 -83.54171 29304 ft 455 kts 87°
2026-05-07 20:37 27.87106 -83.50604 28880 ft 452 kts 87°
2026-05-07 20:38 27.87244 -83.47075 28475 ft 449 kts 87°
2026-05-07 20:38 27.87380 -83.43554 28079 ft 446 kts 87°
2026-05-07 20:38 27.87513 -83.40062 27670 ft 444 kts 87°
2026-05-07 20:38 27.87647 -83.36586 27268 ft 442 kts 87°
2026-05-07 20:39 27.87781 -83.33128 26857 ft 440 kts 87°
2026-05-07 20:39 27.87912 -83.29679 26440 ft 438 kts 87°
2026-05-07 20:39 27.88040 -83.26244 26029 ft 436 kts 88°
2026-05-07 20:39 27.88115 -83.22845 25791 ft 430 kts 89°
2026-05-07 20:40 27.88133 -83.19478 25559 ft 426 kts 90°
2026-05-07 20:40 27.88120 -83.16137 25321 ft 424 kts 90°
2026-05-07 20:40 27.88097 -83.12852 25102 ft 422 kts 90°
2026-05-07 20:40 27.88074 -83.09498 24868 ft 420 kts 90°
2026-05-07 20:41 27.88059 -83.06244 24640 ft 419 kts 90°
2026-05-07 20:41 27.88057 -83.02958 24411 ft 417 kts 90°
2026-05-07 20:41 27.88062 -82.99686 24184 ft 416 kts 90°
2026-05-07 20:41 27.88067 -82.96427 23956 ft 414 kts 89°
2026-05-07 20:42 27.88074 -82.93178 23732 ft 412 kts 90°
2026-05-07 20:42 27.88079 -82.89939 23476 ft 411 kts 90°
2026-05-07 20:42 27.88081 -82.86724 23250 ft 409 kts 90°
2026-05-07 20:42 27.88081 -82.83512 23029 ft 408 kts 90°
2026-05-07 20:43 27.88079 -82.80319 22803 ft 406 kts 90°
2026-05-07 20:43 27.88073 -82.77132 22579 ft 404 kts 90°
2026-05-07 20:43 27.88065 -82.73964 22359 ft 402 kts 90°
2026-05-07 20:43 27.88056 -82.70806 22135 ft 401 kts 90°
2026-05-07 20:44 27.88050 -82.67661 21916 ft 399 kts 90°
2026-05-07 20:44 27.88036 -82.64529 21698 ft 398 kts 90°
2026-05-07 20:44 27.88000 -82.61410 21480 ft 396 kts 90°
2026-05-07 20:44 27.87953 -82.58304 21254 ft 395 kts 90°
2026-05-07 20:45 27.87901 -82.55209 21035 ft 393 kts 91°
2026-05-07 20:45 27.87848 -82.52131 20817 ft 391 kts 91°
2026-05-07 20:45 27.87797 -82.49060 20593 ft 389 kts 90°
2026-05-07 20:45 27.87747 -82.46009 20382 ft 388 kts 90°
2026-05-07 20:46 27.87774 -82.42972 20168 ft 386 kts 83°
2026-05-07 20:46 27.88256 -82.40001 19952 ft 382 kts 71°
2026-05-07 20:46 27.89212 -82.37229 19702 ft 376 kts 62°
2026-05-07 20:46 27.90309 -82.34551 19459 ft 375 kts 62°
2026-05-07 20:47 27.91390 -82.31879 19222 ft 373 kts 62°
2026-05-07 20:47 27.92459 -82.29208 18982 ft 372 kts 62°
2026-05-07 20:47 27.93518 -82.26555 18743 ft 370 kts 63°
2026-05-07 20:47 27.94573 -82.23910 18520 ft 368 kts 62°
2026-05-07 20:48 27.95629 -82.21272 18272 ft 366 kts 62°
2026-05-07 20:48 27.96676 -82.18658 18013 ft 365 kts 63°
2026-05-07 20:48 27.97705 -82.16080 17791 ft 363 kts 63°
2026-05-07 20:48 27.98743 -82.13483 17557 ft 362 kts 63°
2026-05-07 20:49 27.99775 -82.10897 17320 ft 360 kts 63°
2026-05-07 20:49 28.00805 -82.08309 16994 ft 358 kts 63°
2026-05-07 20:49 28.01820 -82.05750 16856 ft 357 kts 63°
2026-05-07 20:49 28.02839 -82.03191 16619 ft 356 kts 63°
2026-05-07 20:50 28.03854 -82.00642 16399 ft 354 kts 63°
2026-05-07 20:50 28.04870 -81.98100 16174 ft 353 kts 63°
2026-05-07 20:50 28.05879 -81.95579 15921 ft 351 kts 64°
2026-05-07 20:50 28.06893 -81.93062 15550 ft 350 kts 63°
2026-05-07 20:51 28.07907 -81.90569 15216 ft 348 kts 63°
2026-05-07 20:51 28.08923 -81.88091 14877 ft 346 kts 63°
2026-05-07 20:51 28.09971 -81.85683 14547 ft 345 kts 61°
2026-05-07 20:51 28.11081 -81.83282 14218 ft 343 kts 60°
2026-05-07 20:52 28.12210 -81.80909 13927 ft 340 kts 60°
2026-05-07 20:52 28.13326 -81.78572 13545 ft 336 kts 60°
2026-05-07 20:52 28.14435 -81.76239 13209 ft 335 kts 60°
2026-05-07 20:52 28.15529 -81.73917 12886 ft 334 kts 61°
2026-05-07 20:53 28.16616 -81.71602 12547 ft 332 kts 61°
2026-05-07 20:53 28.17695 -81.69300 12243 ft 331 kts 61°
2026-05-07 20:53 28.18767 -81.66998 11921 ft 329 kts 61°
2026-05-07 20:53 28.19471 -81.65480 11724 ft 327 kts 61°
2026-05-07 20:54 28.20531 -81.63203 11394 ft 326 kts 61°
2026-05-07 20:54 28.21925 -81.60206 10981 ft 323 kts 61°
2026-05-07 20:54 28.22969 -81.57957 10677 ft 321 kts 62°
2026-05-07 20:54 28.24008 -81.55716 10349 ft 320 kts 61°
2026-05-07 20:55 28.25092 -81.53519 10040 ft 318 kts 54°
2026-05-07 20:55 28.25968 -81.52154 9809 ft 317 kts 52°
2026-05-07 20:55 28.27258 -81.50170 9491 ft 315 kts 52°
2026-05-07 20:55 28.28549 -81.48175 9181 ft 313 kts 52°
2026-05-07 20:56 28.29829 -81.46192 8873 ft 311 kts 52°
2026-05-07 20:56 28.31263 -81.44346 8558 ft 306 kts 37°
2026-05-07 20:56 28.33016 -81.43093 8303 ft 298 kts 20°
2026-05-07 20:56 28.34945 -81.42477 8176 ft 279 kts
2026-05-07 20:57 28.36825 -81.42403 8033 ft 264 kts 356°
2026-05-07 20:57 28.38635 -81.42408 7776 ft 257 kts 356°
2026-05-07 20:57 28.40403 -81.42411 7618 ft 253 kts 356°
2026-05-07 20:57 28.42160 -81.42412 7388 ft 251 kts 357°
2026-05-07 20:58 28.43899 -81.42415 7148 ft 250 kts 356°
2026-05-07 20:58 28.45629 -81.42408 6890 ft 241 kts 357°
2026-05-07 20:58 28.47294 -81.42402 6530 ft 237 kts 358°
2026-05-07 20:58 28.48921 -81.42403 6303 ft 231 kts 355°
2026-05-07 20:59 28.50509 -81.42414 6119 ft 225 kts 356°
2026-05-07 20:59 28.52041 -81.42429 5925 ft 221 kts 356°
2026-05-07 20:59 28.53593 -81.42448 5682 ft 220 kts 355°
2026-05-07 20:59 28.55096 -81.42471 5439 ft 218 kts 355°
2026-05-07 21:00 28.56612 -81.42496 5191 ft 217 kts 355°
2026-05-07 21:00 28.58126 -81.42526 4906 ft 219 kts 354°
2026-05-07 21:00 28.59674 -81.42557 4529 ft 225 kts 355°
2026-05-07 21:00 28.61248 -81.42585 4172 ft 229 kts 356°
2026-05-07 21:01 28.62799 -81.42227 4027 ft 228 kts 22°
2026-05-07 21:01 28.64007 -81.41117 3976 ft 223 kts 54°
2026-05-07 21:01 28.64604 -81.39521 3924 ft 221 kts 82°
2026-05-07 21:01 28.64480 -81.37802 3857 ft 215 kts 112°
2026-05-07 21:02 28.63731 -81.36413 3663 ft 200 kts 140°
2026-05-07 21:02 28.62675 -81.35440 3487 ft 193 kts 146°
2026-05-07 21:02 28.61634 -81.34507 3308 ft 187 kts 146°
2026-05-07 21:02 28.60662 -81.33642 3162 ft 167 kts 151°
2026-05-07 21:03 28.59671 -81.33085 2995 ft 155 kts 166°
2026-05-07 21:03 28.58632 -81.32922 2737 ft 148 kts 183°
2026-05-07 21:03 28.57618 -81.32869 2514 ft 145 kts 185°
2026-05-07 21:03 28.56610 -81.32840 2320 ft 146 kts 185°
2026-05-07 21:04 28.55597 -81.32821 2134 ft 146 kts 186°
2026-05-07 21:04 28.54593 -81.32806 1953 ft 143 kts 185°
2026-05-07 21:04 28.53598 -81.32794 1760 ft 145 kts 185°
2026-05-07 21:04 28.52594 -81.32782 1577 ft 143 kts 184°
2026-05-07 21:05 28.51613 -81.32771 1389 ft 142 kts 185°
2026-05-07 21:05 28.50612 -81.32760 1209 ft 145 kts 185°
2026-05-07 21:05 28.49628 -81.32749 1034 ft 138 kts 185°
2026-05-07 21:05 28.48632 -81.32739 864 ft 146 kts 184°
2026-05-07 21:06 28.47635 -81.32727 675 ft 142 kts 187°
2026-05-07 21:06 28.46630 -81.32716 498 ft 145 kts 185°
2026-05-07 21:06 28.45626 -81.32701 269 ft 142 kts 182°
2026-05-07 21:06 28.44634 -81.32695 124 ft 143 kts 181°
2026-05-07 21:07 28.43726 -81.32691 106 ft 110 kts 180°
2026-05-07 21:07 28.43138 -81.32680 107 ft 61 kts 179°
2026-05-07 21:07 28.42857 -81.32676 108 ft 27 kts 179°
2026-05-07 21:07 28.42690 -81.32655 103 ft 21 kts 162°
2026-05-07 21:08 28.42596 -81.32552 104 ft 18 kts 124°
2026-05-07 21:08 28.42527 -81.32426 106 ft 20 kts 121°
2026-05-07 21:08 28.42458 -81.32295 108 ft 18 kts 118°
2026-05-07 21:08 28.42399 -81.32174 111 ft 18 kts 120°
2026-05-07 21:09 28.42348 -81.32041 110 ft 19 kts 97°
2026-05-07 21:09 28.42348 -81.31879 108 ft 22 kts 89°
2026-05-07 21:09 28.42348 -81.31690 105 ft 26 kts 90°
2026-05-07 21:09 28.42349 -81.31484 101 ft 25 kts 90°
2026-05-07 21:10 28.42349 -81.31317 100 ft 21 kts 88°
2026-05-07 21:10 28.42335 -81.31140 101 ft 24 kts 102°
2026-05-07 21:10 28.42321 -81.30954 100 ft 24 kts 86°
2026-05-07 21:10 28.42330 -81.30764 106 ft 23 kts 85°
2026-05-07 21:11 28.42344 -81.30575 104 ft 25 kts 85°
2026-05-07 21:11 28.42358 -81.30382 100 ft 26 kts 86°
2026-05-07 21:11 28.42361 -81.30043 104 ft 18 kts 89°
2026-05-07 21:12 28.42362 -81.29892 103 ft 20 kts 89°
2026-05-07 21:12 28.42420 -81.29802 102 ft 12 kts 17°
2026-05-07 21:12 28.42509 -81.29796 103 ft 14 kts 359°
2026-05-07 21:12 28.42588 -81.29824 103 ft 8 kts 303°
2026-05-07 21:13 28.42622 -81.29881 103 ft 10 kts 316°
2026-05-07 21:13 28.42651 -81.29938 103 ft 9 kts 257°
2026-05-07 21:13 28.42627 -81.29991 103 ft 4 kts 241°
2026-05-07 21:13 28.42625 -81.29995 103 ft 0 kts 241°